| time (UTC) | temp F | wind direction | speed MPH | gust MPH | rain 1hr in | rain 24hr in | rain mn in | humidity % | barometer mb |
| 20260506134543 | 41 | 194 | 11.0 | 16.0 | 0.00 | 0.00 | 0.00 | 51 | 1015.9 |
| 20260506133055 | 40 | 182 | 11.0 | 15.0 | 0.00 | 0.00 | 0.00 | 53 | 1016.2 |
| 20260506131537 | 38 | 191 | 10.0 | 16.0 | 0.00 | 0.00 | 0.00 | 55 | 1016.2 |
| 20260506130029 | 36 | 182 | 10.0 | 14.0 | 0.00 | 0.00 | 0.00 | 53 | 1016.2 |
| 20260506124526 | 35 | 195 | 10.0 | 14.0 | 0.00 | 0.00 | 0.00 | 51 | 1016.3 |
| 20260506123023 | 34 | 185 | 7.0 | 11.0 | 0.00 | 0.00 | 0.00 | 52 | 1016.3 |
| 20260506121522 | 33 | 199 | 8.0 | 11.0 | 0.00 | 0.00 | 0.00 | 53 | 1016.3 |
| 20260506120020 | 33 | 187 | 8.0 | 11.0 | 0.00 | 0.00 | 0.00 | 55 | 1016.4 |
| 20260506114522 | 32 | 193 | 8.0 | 11.0 | 0.00 | 0.00 | 0.00 | 56 | 1016.6 |
| 20260506113018 | 32 | 188 | 7.0 | 13.0 | 0.00 | 0.00 | 0.00 | 56 | 1016.8 |
| 20260506111515 | 32 | 202 | 7.0 | 11.0 | 0.00 | 0.00 | 0.00 | 57 | 1016.8 |
| 20260506110017 | 31 | 193 | 9.0 | 11.0 | 0.00 | 0.00 | 0.00 | 58 | 1017.1 |
| 20260506104533 | 31 | 229 | 4.0 | 6.0 | 0.00 | 0.00 | 0.00 | 58 | 1017.1 |
| 20260506103014 | 31 | 239 | 4.0 | 8.0 | 0.00 | 0.00 | 0.00 | 59 | 1017.2 |
| 20260506101514 | 31 | 219 | 4.0 | 6.0 | 0.00 | 0.00 | 0.00 | 58 | 1017.3 |
| 20260506100017 | 31 | 235 | 5.0 | 7.0 | 0.00 | 0.00 | 0.00 | 57 | 1017.5 |
| 20260506094514 | 31 | 241 | 4.0 | 8.0 | 0.00 | 0.00 | 0.00 | 59 | 1017.6 |
| 20260506093014 | 30 | 229 | 4.0 | 8.0 | 0.00 | 0.00 | 0.00 | 60 | 1017.7 |
| 20260506091511 | 30 | 230 | 5.0 | 7.0 | 0.00 | 0.00 | 0.00 | 62 | 1018.0 |
| 20260506090009 | 30 | 211 | 4.0 | 7.0 | 0.00 | 0.00 | 0.00 | 62 | 1018.0 |
| 20260506084508 | 30 | 234 | 3.0 | 7.0 | 0.00 | 0.00 | 0.00 | 61 | 1018.1 |
| 20260506083009 | 30 | 227 | 3.0 | 5.0 | 0.00 | 0.00 | 0.00 | 60 | 1018.3 |
| 20260506081509 | 30 | 227 | 2.0 | 5.0 | 0.00 | 0.00 | 0.00 | 59 | 1018.4 |
| 20260506073058 | 30 | 227 | 3.0 | 5.0 | 0.00 | 0.00 | 0.00 | 58 | 1018.9 |
| 20260506071620 | 31 | 227 | 2.0 | 4.0 | 0.00 | 0.00 | 0.00 | 56 | 1019.0 |
| 20260506061551 | 32 | 336 | 1.0 | 3.0 | 0.00 | 0.00 | 0.00 | 54 | 1019.2 |
| 20260506044603 | 34 | 336 | 0.0 | 2.0 | 0.00 | 0.00 | 0.00 | 50 | 1019.2 |
| 20260506043055 | 34 | 336 | 0.0 | 1.0 | 0.00 | 0.00 | 0.00 | 51 | 1019.3 |
| 20260506041553 | 34 | 336 | 0.0 | 0.0 | 0.00 | 0.00 | 0.00 | 51 | 1019.4 |
| 20260506040052 | 34 | 336 | 1.0 | 3.0 | 0.00 | 0.00 | 0.00 | 51 | 1019.5 |
| 20260506034554 | 33 | 336 | 2.0 | 3.0 | 0.00 | 0.00 | 0.00 | 52 | 1019.3 |
| 20260506033049 | 34 | 336 | 2.0 | 4.0 | 0.00 | 0.00 | 0.00 | 51 | 1019.4 |
| 20260506031552 | 35 | 336 | 4.0 | 5.0 | 0.00 | 0.00 | 0.00 | 50 | 1019.4 |
| 20260506030051 | 35 | 337 | 3.0 | 4.0 | 0.00 | 0.00 | 0.00 | 50 | 1019.4 |
| 20260506024550 | 36 | 336 | 2.0 | 5.0 | 0.00 | 0.00 | 0.00 | 48 | 1019.3 |
| 20260506023054 | 37 | 338 | 3.0 | 6.0 | 0.00 | 0.00 | 0.00 | 47 | 1019.1 |
| 20260506021556 | 38 | 351 | 5.0 | 10.0 | 0.00 | 0.00 | 0.00 | 46 | 1019.1 |
| 20260506020047 | 39 | 349 | 8.0 | 13.0 | 0.00 | 0.00 | 0.00 | 44 | 1019.2 |
| 20260506014547 | 40 | 347 | 10.0 | 15.0 | 0.00 | 0.00 | 0.00 | 42 | 1019.3 |
| 20260506013047 | 41 | 338 | 8.0 | 19.0 | 0.00 | 0.00 | 0.00 | 42 | 1019.1 |
| 20260506011550 | 41 | 336 | 13.0 | 17.0 | 0.00 | 0.00 | 0.00 | 40 | 1019.1 |
| 20260506010053 | 42 | 351 | 11.0 | 18.0 | 0.00 | 0.00 | 0.00 | 39 | 1019.3 |
| 20260506004546 | 42 | 341 | 12.0 | 21.0 | 0.00 | 0.00 | 0.00 | 39 | 1019.2 |
| 20260506003046 | 42 | 360 | 14.0 | 21.0 | 0.00 | 0.00 | 0.00 | 40 | 1019.0 |
| 20260506001546 | 42 | 336 | 14.0 | 21.0 | 0.00 | 0.00 | 0.00 | 39 | 1019.1 |
| 20260506000047 | 42 | 355 | 14.0 | 20.0 | 0.00 | 0.00 | 0.00 | 39 | 1019.2 |
| 20260505234606 | 43 | 303 | 14.0 | 22.0 | 0.00 | 0.00 | 0.00 | 39 | 1019.1 |
| 20260505233049 | 43 | 288 | 15.0 | 23.0 | 0.00 | 0.00 | 0.00 | 39 | 1019.0 |
| 20260505231545 | 43 | 341 | 15.0 | 23.0 | 0.00 | 0.00 | 0.00 | 39 | 1019.3 |
| 20260505230049 | 43 | 298 | 13.0 | 26.0 | 0.00 | 0.00 | 0.00 | 40 | 1019.2 |
| 20260505224546 | 43 | 287 | 14.0 | 21.0 | 0.00 | 0.00 | 0.00 | 40 | 1019.1 |
| 20260505223055 | 43 | 340 | 15.0 | 24.0 | 0.00 | 0.00 | 0.00 | 42 | 1019.1 |
| 20260505221545 | 44 | 294 | 15.0 | 23.0 | 0.00 | 0.00 | 0.00 | 40 | 1019.2 |
| 20260505220046 | 43 | 347 | 19.0 | 29.0 | 0.00 | 0.00 | 0.00 | 41 | 1018.9 |
| 20260505214553 | 42 | 308 | 16.0 | 26.0 | 0.00 | 0.00 | 0.00 | 40 | 1019.0 |
| 20260505213043 | 43 | 334 | 18.0 | 27.0 | 0.00 | 0.00 | 0.00 | 41 | 1019.0 |
| 20260505211548 | 43 | 317 | 15.0 | 26.0 | 0.00 | 0.00 | 0.00 | 42 | 1019.3 |
| 20260505210040 | 42 | 355 | 15.0 | 22.0 | 0.00 | 0.00 | 0.00 | 43 | 1019.4 |
| 20260505204539 | 43 | 342 | 15.0 | 21.0 | 0.00 | 0.00 | 0.00 | 43 | 1019.5 |
| 20260505203050 | 42 | 347 | 16.0 | 26.0 | 0.00 | 0.00 | 0.00 | 42 | 1019.6 |
| 20260505201537 | 41 | 331 | 15.0 | 23.0 | 0.00 | 0.00 | 0.00 | 47 | 1019.7 |
| 20260505200039 | 41 | 312 | 12.0 | 21.0 | 0.00 | 0.00 | 0.00 | 46 | 1019.6 |
| 20260505194541 | 41 | 330 | 14.0 | 26.0 | 0.00 | 0.00 | 0.00 | 48 | 1019.7 |
| 20260505193036 | 40 | 327 | 15.0 | 23.0 | 0.00 | 0.00 | 0.00 | 47 | 1019.7 |
| 20260505191543 | 40 | 355 | 16.0 | 27.0 | 0.00 | 0.00 | 0.00 | 49 | 1019.6 |
| 20260505190035 | 40 | 344 | 16.0 | 27.0 | 0.00 | 0.00 | 0.00 | 49 | 1019.6 |
| 20260505184545 | 39 | 301 | 15.0 | 28.0 | 0.00 | 0.00 | 0.00 | 50 | 1019.6 |
| 20260505183040 | 41 | 336 | 15.0 | 24.0 | 0.00 | 0.00 | 0.00 | 50 | 1019.6 |
| 20260505181532 | 40 | 17 | 14.0 | 24.0 | 0.00 | 0.00 | 0.00 | 53 | 1019.6 |
| 20260505180035 | 39 | 342 | 16.0 | 24.0 | 0.00 | 0.00 | 0.00 | 52 | 1019.6 |
| 20260505174534 | 40 | 315 | 19.0 | 24.0 | 0.00 | 0.00 | 0.00 | 50 | 1019.7 |
| 20260505173033 | 38 | 298 | 13.0 | 24.0 | 0.00 | 0.00 | 0.00 | 55 | 1019.8 |
| 20260505171531 | 40 | 345 | 14.0 | 23.0 | 0.00 | 0.00 | 0.00 | 53 | 1019.6 |
| 20260505170037 | 39 | 340 | 17.0 | 25.0 | 0.00 | 0.00 | 0.00 | 54 | 1019.6 |
| 20260505164535 | 39 | 340 | 17.0 | 24.0 | 0.00 | 0.00 | 0.00 | 56 | 1019.6 |
| 20260505163033 | 36 | 308 | 17.0 | 23.0 | 0.00 | 0.00 | 0.00 | 60 | 1019.5 |
| 20260505161530 | 37 | 330 | 13.0 | 21.0 | 0.00 | 0.00 | 0.00 | 60 | 1019.6 |
| 20260505153027 | 36 | 327 | 10.0 | 16.0 | 0.00 | 0.00 | 0.00 | 69 | 1019.6 |
| 20260505151533 | 34 | 327 | 9.0 | 14.0 | 0.00 | 0.00 | 0.00 | 76 | 1019.6 |